Regional Weather Roundup
Issued by NWS Cleveland, OH

Home | Current Version | Previous Version | Graphics & Text | Print | Product List | Glossary On
Versions: 1 2 3 4 5 6 7 8 9 10 11 12 13 14 15 16 17 18 19 20 21 22 23 24 25 26 27 28 29 30 31 32 33 34 35 36 37 38 39 40 41 42 43 44 45 46 47 48 49 50
000
ASUS41 KCLE 232310
RWRCLE
OHIO REGIONAL WEATHER ROUNDUP
NATIONAL WEATHER SERVICE CLEVELAND, OH
700 PM EDT THU OCT 23 2014

NOTE: "FAIR" INDICATES FEW OR NO CLOUDS BELOW 12,000 FEET WITH NO
SIGNIFICANT WEATHER AND/OR OBSTRUCTIONS TO VISIBILITY.

OHZ001>008-015>018-024>027-034-035-043-044-240000-
   NORTHWEST OHIO

CITY           SKY/WX    TMP DP  RH WIND       PRES   REMARKS
DEFIANCE       MOCLDY    49  40  71 CALM      30.13F
FINDLAY        CLEAR     52  39  61 CALM      30.13F HAZE
TOLEDO EXPRESS CLEAR     49  39  68 CALM      30.12F
TOLEDO EXEC    CLEAR     51  38  60 S3        30.14F
LIMA           PTCLDY    49  40  71 CALM      30.13F
$$

OHZ009>014-019>023-028>033-038-089-240000-
   NORTHEAST OHIO

CITY           SKY/WX    TMP DP  RH WIND       PRES   REMARKS
CLE-HOPKINS    PTCLDY    49  41  74 W5        30.15F
CLE-LAKEFRONT  CLEAR     51  44  77 W9        30.12F
CUY CO. ARPT   PTCLDY    50  46  87 W9        30.13S
LORAIN-ELYRIA  CLEAR     47  39  74 W5        30.14F
ASHTABULA      CLEAR     50  44  80 NW6       30.11S
AKRON-CANTON   PTCLDY    49  41  74 NW7       30.12R
WOOSTER        CLEAR     47  40  76 N6        30.13S
MANSFIELD      CLEAR     51  41  68 CALM      30.13S
YOUNGSTOWN     PTCLDY    50  42  74 NW8       30.10R
$$

OHZ042-051>053-060>062-070>072-077>081-240000-
  SOUTHWEST OHIO

CITY           SKY/WX    TMP DP  RH WIND       PRES   REMARKS
CINC-COVINGTON MOCLDY    57  38  48 N3        30.13S
CINC-LUNKEN    MOCLDY    51  44  77 CALM      30.15S
HAMILTON       MOCLDY    50  42  74 CALM      30.15S
DAYTON         MOCLDY    54  39  57 CALM      30.15R
WRIGHT-PAT AFB CLEAR     54  43  68 CALM      30.14S
DAYTON GENERAL MOCLDY    53  40  61 CALM      30.14R
WILMINGTON     PTCLDY    54  39  57 NW5       30.14R
$$

OHZ036-037-039>041-045>050-054>059-063>069-073>076-082>088-240000-
  CENTRAL AND SOUTHEAST OHIO

CITY           SKY/WX    TMP DP  RH WIND       PRES   REMARKS
COLUMBUS       PTCLDY    54  41  61 N6        30.13R
OSU AIRPORT    CLEAR     53  41  63 CALM      30.13S
BOLTON FIELD   CLEAR     52  43  71 CALM      30.14R
RICKENBACK AFB CLEAR     54  40  59 N5        30.13S
NEWARK         CLEAR     48  40  73 W5        30.12S
MARION         CLEAR     51  40  65 NW3       30.14R
LANCASTER      CLEAR     50  41  71 CALM      30.14R
ZANESVILLE     CLEAR     55  41  59 W5        30.11S
NEW PHILLY     CLEAR     54  43  66 CALM      30.12S
$$



USA.gov is the U.S. government's official web portal to all federal, state and local government web resources and services.